Vertical_Velocity
2 1 2 1 2 3 1 2 -1 1 -0 -1 1 -1 -1 -1 -1 1 1 1 -0 1 -0 1 1 1 1 1 -3 1 2 1 -1
1 2 1 1 -0 0 -2 1 2 -0 2 -0 0 0 -2 -1 -1 -1 1 -0 1 1 0 1 -0 -0 0 0 1 2 1 -0 1
-9 -0 2 -0 1 1 -1 -1 1 -1 1 1 -0 -0 1 0 1 -1 -0 -1 0 0 1 0 1 -0 0 -1 2 2 1 -0 2
-3 -2 2 -1 2 0 1 1 0 1 1 -1 -1 0 1 -0 1 -0 -2 -1 -0 0 1 0 -0 0 -1 0 -0 2 2 0 -1
-2 -6 -6 2 1 -1 -0 -1 1 1 -1 -1 -0 -0 0 1 2 -3 2 -1 -1 1 -0 1 -0 1 -1 1 0 1 0 -1 -0
0 2 -1 -4 1 3 -1 -0 -0 0 -2 0 -0 -2 -2 2 0 0 2 1 0 1 1 1 -0 2 -0 0 -0 0 -1 -1 0
2 -1 1 0 -3 3 0 1 2 2 0 0 -0 1 1 -2 1 3 0 1 0 -0 3 -1 1 1 1 -1 2 -1 1 -1 2
-1 -0 1 0 -3 -4 -3 -1 -3 1 2 1 -4 1 0 1 -3 0 1 2 -0 -1 1 1 1 3 1 2 1 -1 1 -1 1
3 2 0 0 0 1 -2 -3 -5 0 7 55 1 -0 0 1 0 -2 1 2 -0 -1 -0 1 1 2 2 3 2 1 2 0 1
1 -2 2 1 -2 0 -1 2 -0 -4 -5 -1 4 2 2 1 1 0 1 0 -1 2 1 -0 0 1 2 2 1 2 1 1 -1
-0 -0 2 1 -2 5 3 -0 -2 -3 -2 -0 -3 9 -0 2 1 2 1 1 1 -1 4 -2 4 -1 0 3 0 1 2 1 2
-3 -1 1 3 -0 1 2 -1 2 0 -2 0 -3 -8 -1 4 2 -0 -0 2 1 -1 -0 3 0 2 -0 1 1 1 1 0 2
2 0 3 1 0 -5 -5 4 3 2 1 0 -1 -5 -7 14 1 -4 1 1 3 2 -1 1 2 4 -1 0 1 1 0 1 2
-2 -2 -2 -1 -4 93 18 54 -7 8 -4 12 -1 8 -3 3 1 -2 -2 -1 3 0 1 2 -1 -0 3 -1 -0 2 2 1 1
-1 -1 0 -1 -1 5 10 -1 -4 1 6 14 2 0 1 -7 -2 0 4 2 4 0 2 -2 2 2 1 3 -0 -0 2 -1 1
-5 -5 -5 -2 1 -1 2 -0 55 -5 1 -0 5 6 -3 -2 -2 -4 2 -5 7 1 1 3 -1 2 0 -0 -0 2 2 -2 1
-1 -3 -5 -5 -1 2 3 1 -3 42 8 -13 -6 16 2 -5 3 3 -1 5 5 -2 0 -0 -1 -0 2 3 2 0 1 4 -2
0 2 1 -2 -3 -3 3 -1 1 -11 12 33 -5 -13 -21 10 3 4 3 1 4 6 -0 0 -3 1 -0 0 1 3 1 -1 4
-1 0 -0 -3 -3 -3 0 1 2 -3 0 -17 56 11 0 -3 -2 -1 1 3 -1 3 -1 -4 -1 -2 -2 1 2 1 2 3 1
0 -1 0 1 -1 0 -2 -1 -0 -0 -2 1 21 15 13 3 3 0 4 -3 -3 4 4 -0 1 -1 1 -2 1 4 2 3 3
Height
5834 5835 5836 5837 5839 5841 5843 5844 5846 5847 5848 5849 5850 5851 5852 5853 5855 5856 5857 5858 5858 5859 5861 5862 5865 5867 5868 5869 5870 5871 5873 5875 5876
5830 5832 5833 5833 5836 5838 5840 5841 5843 5844 5846 5847 5847 5849 5850 5851 5853 5854 5855 5856 5857 5858 5859 5861 5863 5865 5866 5867 5869 5871 5872 5873 5874
5824 5827 5829 5830 5831 5834 5836 5838 5840 5841 5842 5844 5844 5846 5848 5849 5850 5851 5852 5854 5855 5856 5858 5859 5861 5862 5864 5865 5868 5869 5870 5871 5872
5821 5821 5825 5826 5827 5828 5832 5834 5836 5837 5838 5840 5840 5843 5845 5847 5848 5848 5850 5851 5853 5854 5856 5857 5858 5860 5861 5863 5865 5867 5868 5869 5869
5814 5818 5820 5821 5823 5824 5827 5829 5831 5832 5834 5836 5837 5839 5840 5844 5844 5845 5847 5848 5850 5852 5853 5854 5855 5856 5858 5860 5862 5864 5865 5866 5867
5809 5811 5813 5816 5817 5820 5822 5824 5826 5828 5829 5831 5832 5834 5836 5839 5840 5841 5844 5845 5846 5847 5849 5850 5851 5853 5854 5856 5858 5859 5860 5862 5864
5802 5804 5805 5808 5810 5812 5815 5818 5820 5822 5823 5825 5826 5829 5831 5833 5835 5836 5839 5840 5841 5843 5845 5845 5847 5849 5850 5851 5854 5855 5856 5858 5860
5793 5794 5798 5800 5803 5805 5807 5810 5813 5813 5816 5818 5819 5823 5825 5827 5829 5832 5834 5835 5836 5838 5839 5841 5842 5845 5845 5847 5848 5850 5852 5853 5855
5784 5786 5789 5792 5794 5796 5798 5802 5803 5799 5806 5806 5809 5815 5818 5820 5823 5825 5827 5829 5831 5832 5834 5835 5837 5839 5840 5842 5843 5845 5847 5848 5850
5775 5778 5780 5782 5785 5787 5790 5793 5794 5796 5799 5800 5802 5806 5809 5812 5815 5819 5820 5821 5823 5827 5829 5829 5831 5833 5834 5836 5838 5840 5842 5843 5845
5764 5768 5770 5773 5776 5778 5780 5783 5784 5785 5788 5791 5794 5797 5800 5804 5808 5810 5811 5813 5816 5819 5822 5823 5825 5826 5827 5830 5831 5834 5836 5837 5839
5755 5757 5761 5763 5767 5768 5771 5773 5774 5777 5779 5783 5785 5787 5789 5795 5798 5802 5803 5805 5808 5811 5814 5816 5817 5819 5821 5822 5825 5827 5829 5830 5832
5745 5748 5751 5754 5758 5760 5761 5761 5764 5767 5770 5772 5774 5777 5779 5784 5789 5791 5795 5796 5799 5802 5804 5807 5809 5812 5814 5815 5817 5819 5821 5822 5825
5735 5737 5740 5743 5748 5741 5744 5743 5753 5757 5760 5762 5765 5767 5769 5772 5776 5780 5785 5787 5789 5792 5795 5798 5800 5803 5806 5807 5808 5811 5813 5814 5817
5724 5725 5728 5731 5735 5735 5737 5741 5743 5747 5750 5752 5755 5755 5758 5760 5763 5768 5772 5776 5779 5780 5784 5787 5790 5793 5795 5798 5799 5801 5805 5805 5809
5712 5714 5716 5719 5721 5723 5726 5729 5725 5734 5738 5738 5742 5744 5746 5750 5753 5755 5760 5764 5768 5770 5773 5775 5778 5782 5784 5788 5790 5792 5795 5796 5799
5699 5701 5703 5706 5708 5711 5714 5715 5720 5716 5723 5729 5730 5731 5735 5739 5743 5745 5747 5753 5756 5760 5762 5764 5766 5770 5773 5777 5779 5781 5784 5788 5788
5688 5689 5691 5693 5696 5698 5701 5703 5706 5712 5714 5716 5718 5720 5722 5726 5730 5733 5736 5739 5743 5748 5749 5751 5754 5758 5762 5765 5768 5771 5773 5775 5779
5676 5678 5679 5681 5683 5685 5688 5689 5692 5695 5700 5702 5700 5706 5708 5708 5716 5720 5724 5727 5730 5733 5736 5739 5742 5745 5748 5752 5755 5758 5761 5763 5766
5665 5667 5669 5669 5669 5671 5673 5675 5676 5680 5684 5691 5690 5688 5692 5695 5700 5706 5711 5713 5717 5720 5723 5726 5728 5732 5734 5737 5741 5744 5747 5750 5752